Content
SEND FEEDBACK

Daily
Averages
Monthly
Summary
United States of America

NEWFANE, VERMONT


Home > North America > United States > Vermont
Elevation: 686 feet     Latitude: 42 59N     Longitude: 072 39W

WEATHER
 
SELECT A DAY
Number of Records: 445,020;   Date Range: 1/1/95 - 7/7/14
 
SHARE

PRINT THIS DATA

[ ← Previous Day ]
WEATHER ALMANAC - JANUARY 31, 2013
[ Next Day → ]
[ °C ]   °F
Weather ElementAverageHighLow
Temperature42.9 °F57.2 °F (2:55 am)28.4 °F (8:35 pm)
Dewpoint31.1 °F55.4 °F (3:55 am)8.6 °F (10:15 pm)
Humidity65.4 %100 % (1:15 am)41 % (1:55 pm)
Barometer29.24 in29.57 in (11:15 pm)28.92 in (7:15 am)
Wind Speed14.8 mph28.8 mph (11:15 am)
Wind Gust41.4 mph (11:15 am)
Weather ElementAverage
Visibility9.5 mi
Wind DirectionWSW (235.9 °)

Weather ElementTotal
Precipitation1.79 in
Heating Degree Days22.2 (Base 65)
Averaged from 64 records on January 31, 2013
WEATHER CONDITIONS BREAKOUT
WIND DIRECTION BREAKOUT
WEATHER BY HOUR - JANUARY 31, 2013
[ °C ]   °F
Local TimeTemperatureDewpointHumidityBarometerVisibilityWind DirectionWind SpeedGust SpeedPrecipitationEventsConditions
12:35 AM48.2 °F46.4 °F93 %29.33 in0.5 miSouth (180°)8.1 mph0.01 inOvercast
12:55 AM53.6 °F51.8 °F94 %29.31 in9.0 miSouth (190°)11.5 mph16.1 mph0.01 inOvercast
1:15 AM53.6 °F53.6 °F100 %29.28 in9.0 miSouth (190°)13.8 mph20.7 mph0.04 inOvercast
1:35 AM55.4 °F53.6 °F94 %29.26 in6.0 miSouth (190°)13.8 mph20.7 mph0.04 inOvercast
1:55 AM55.4 °F53.6 °F94 %29.24 in7.0 miSSW (200°)18.4 mph28.8 mph0.06 inOvercast
2:16 AM55.4 °F53.6 °F94 %29.22 in9.0 miSouth (190°)13.8 mph23.0 mph0.05 inOvercast
2:35 AM55.4 °F53.6 °F94 %29.18 in10.0 miSouth (180°)18.4 mph0.10 inOvercast
2:55 AM57.2 °F53.6 °F88 %29.15 in10.0 miSouth (190°)18.4 mph34.5 mph0.11 inOvercast
3:15 AM57.2 °F53.6 °F88 %29.14 in10.0 miSouth (190°)17.3 mph26.5 mph0.02 inOvercast
3:35 AM57.2 °F53.6 °F88 %29.11 in7.0 miSouth (190°)15.0 mph26.5 mph0.04 inOvercast
3:55 AM57.2 °F55.4 °F94 %29.06 in8.0 miSouth (180°)19.6 mph26.5 mph0.05 inOvercast
4:15 AM57.2 °F55.4 °F94 %29.03 in10.0 miSouth (180°)18.4 mph28.8 mph0.02 inOvercast
4:35 AM57.2 °F55.4 °F94 %29.00 in8.0 miSouth (190°)23.0 mph36.8 mph0.05 inOvercast
4:55 AM57.2 °F55.4 °F94 %28.98 in8.0 miSouth (190°)20.7 mph33.4 mph0.11 inOvercast
5:15 AM57.2 °F55.4 °F94 %28.96 in7.0 miSouth (190°)20.7 mph31.1 mph0.11 inOvercast
5:35 AM57.2 °F55.4 °F94 %28.97 in9.0 miSSW (210°)18.4 mph31.1 mph0.20 inOvercast
5:55 AM57.2 °F53.6 °F88 %28.99 in10.0 miSSW (200°)21.9 mph29.9 mph0.27 inOvercast
6:15 AM57.2 °F51.8 °F82 %28.99 in10.0 miSouth (190°)13.8 mph26.5 mph0.02 inMostly Cloudy
6:35 AM55.4 °F53.6 °F94 %28.98 in10.0 miSouth (180°)13.8 mph0.05 inOvercast
6:55 AM55.4 °F51.8 °F88 %28.93 in10.0 miSouth (170°)13.8 mph18.4 mph0.05 inMostly Cloudy
7:15 AM53.6 °F51.8 °F94 %28.92 in10.0 miSouth (180°)10.4 mph0.01 inOvercast
7:35 AM55.4 °F51.8 °F88 %28.93 in10.0 miSouth (190°)16.1 mph19.6 mph0.01 inMostly Cloudy
7:55 AM55.4 °F51.8 °F88 %28.92 in10.0 miSSW (200°)18.4 mph28.8 mph0.01 inMostly Cloudy
8:15 AM44.6 °F39.2 °F81 %29.01 in10.0 miWSW (250°)12.7 mph27.6 mph0.10 inOvercast
8:35 AM42.8 °F35.6 °F76 %29.05 in10.0 miSW (230°)9.2 mph20.7 mph0.11 inOvercast
8:55 AM42.8 °F33.8 °F70 %29.06 in10.0 miWest (280°)4.6 mph25.3 mph0.11 inOvercast
9:16 AM42.8 °F33.8 °F70 %29.09 in10.0 miWest (260°)3.5 mph0.01 inOvercast
9:35 AM41.0 °F32.0 °F70 %29.11 in10.0 miWest (280°)11.5 mph16.1 mph0.01 inOvercast
9:55 AM41.0 °F32.0 °F70 %29.11 in10.0 miWest (270°)5.8 mph0.01 inOvercast
10:16 AM42.8 °F30.2 °F61 %29.12 in10.0 miWNW (290°)15.0 mph24.2 mphMostly Cloudy
10:35 AM41.0 °F26.6 °F57 %29.16 in10.0 miWNW (290°)18.4 mph33.4 mphOvercast
10:55 AM41.0 °F26.6 °F57 %29.17 in10.0 miWest (270°)11.5 mph24.2 mphOvercast
11:15 AM41.0 °F24.8 °F53 %29.19 in10.0 miWest (260°)28.8 mph41.4 mphOvercast
11:35 AM39.2 °F23.0 °F52 %29.20 in10.0 miWSW (250°)16.1 mph36.8 mphOvercast
11:55 AM39.2 °F21.2 °F49 %29.21 in10.0 miWest (260°)19.6 mph35.7 mphMostly Cloudy
12:15 PM39.2 °F21.2 °F49 %29.21 in10.0 miWest (280°)13.8 mph25.3 mphMostly Cloudy
12:35 PM39.2 °F19.4 °F45 %29.23 in10.0 miWSW (240°)20.7 mph32.2 mphOvercast
12:55 PM39.2 °F19.4 °F45 %29.25 in10.0 miWNW (290°)23.0 mph33.4 mphMostly Cloudy
1:16 PM39.2 °F17.6 °F42 %29.26 in10.0 miWest (270°)18.4 mph31.1 mphMostly Cloudy
1:35 PM37.4 °F17.6 °F45 %29.27 in10.0 miWest (260°)19.6 mph34.5 mphOvercast
1:55 PM37.4 °F15.8 °F41 %29.28 in10.0 miWNW (290°)20.7 mph32.2 mphOvercast
2:15 PM37.4 °F15.8 °F41 %29.30 in10.0 miWest (260°)15.0 mph34.5 mphMostly Cloudy
2:35 PM37.4 °F15.8 °F41 %29.31 in10.0 miWest (270°)17.3 mph33.4 mphMostly Cloudy
2:55 PM35.6 °F15.8 °F44 %29.33 in10.0 miWest (260°)15.0 mph28.8 mphOvercast
3:35 PM35.6 °F15.8 °F44 %29.35 in10.0 miWSW (250°)15.0 mph21.9 mphOvercast
4:15 PM35.6 °F15.8 °F44 %29.38 in10.0 miWest (260°)13.8 mph35.7 mphOvercast
4:35 PM35.6 °F15.8 °F44 %29.38 in10.0 miWest (260°)11.5 mph23.0 mphOvercast
4:55 PM35.6 °F15.8 °F44 %29.39 in10.0 miWNW (300°)17.3 mph23.0 mphOvercast
5:15 PM33.8 °F12.2 °F41 %29.41 in10.0 miWest (260°)15.0 mph26.5 mphOvercast
5:35 PM33.8 °F12.2 °F41 %29.42 in10.0 miWest (260°)10.4 mph17.3 mphOvercast
5:55 PM33.8 °F14.0 °F44 %29.44 in10.0 miWNW (290°)6.9 mph18.4 mphMostly Cloudy
6:35 PM32.0 °F14.0 °F48 %29.46 in10.0 miWest (260°)12.7 mph27.6 mphPartly Cloudy
7:15 PM30.2 °F12.2 °F47 %29.50 in10.0 miWest (260°)15.0 mph35.7 mphPartly Cloudy
7:35 PM30.2 °F12.2 °F47 %29.50 in10.0 miWest (270°)16.1 mph25.3 mphClear
8:15 PM30.2 °F12.2 °F47 %29.52 in10.0 miWSW (250°)11.5 mph27.6 mphMostly Cloudy
8:35 PM28.4 °F12.2 °F51 %29.53 in10.0 miWSW (250°)13.8 mph21.9 mphPartly Cloudy
8:55 PM28.4 °F12.2 °F51 %29.54 in10.0 miWSW (250°)12.7 mph19.6 mphPartly Cloudy
9:15 PM28.4 °F10.4 °F47 %29.54 in10.0 miWSW (240°)11.5 mph32.2 mphClear
9:35 PM28.4 °F10.4 °F47 %29.54 in10.0 miWSW (250°)8.1 mph23.0 mphClear
10:15 PM28.4 °F8.6 °F43 %29.55 in10.0 miWSW (250°)8.1 mph27.6 mphClear
10:35 PM28.4 °F10.4 °F47 %29.55 in10.0 miWSW (250°)9.2 mph20.7 mphClear
11:15 PM28.4 °F10.4 °F47 %29.57 in10.0 miWSW (240°)6.9 mph18.4 mphMostly Cloudy
11:35 PM28.4 °F10.4 °F47 %29.57 in10.0 miWest (260°)16.1 mph24.2 mphMostly Cloudy
11:55 PM28.4 °F8.6 °F43 %29.57 in10.0 miWSW (240°)15.0 mph24.2 mphPartly Cloudy
Hourly data recorded from KEEN, located miles away from Newfane, Vermont







STORIES FROM OUR PARTNERS